Location: Unspecified
(41.5000°N, 0.0000°E)
Time: 10:34:32
(UTC+00:00)

Courier 1B Rocket - Pass Details

Date: 01 July 2019
Orbit: 920 x 1202 km, 28.3° (Epoch: 16 August)

Event Time Altitude Azimuth Distance (km) Brightness Sun altitude
Rises 23:13:45 0° 216° (SW) 4,085 - -24.4°
Reaches altitude 10° 23:17:42 10° 198° (SSW) 3,124 - -24.5°
Maximum altitude 23:22:32 18° 159° (SSE) 2,566 - -24.7°
Drops below altitude 10° 23:27:18 10° 120° (ESE) 3,077 - -24.9°
Sets 23:31:08 0° 103° (ESE) 4,001 - -25.0°
Exits shadow 23:31:12 - 102° (ESE) 4,022 8.0 -25.0°
